Weather History for Oakes, ND

Change the Weather History Date:

Monday, September 23, 2013

  Actual Average (KABR) Record (KABR)
Temperature  
Mean Temperature 70 °F 56 °F  
Max Temperature 80 °F 69 °F 94 °F (1935)
Min Temperature 59 °F 42 °F 22 °F (2012)
Degree Days  
Heating Degree Days 0 10  
Month to date heating degree days 143  
Since 1 July heating degree days 194  
Cooling Degree Days 5 1  
Month to date cooling degree days 39  
Year to date cooling degree days 522  
Growing Degree Days 20 (Base 50)    
Moisture  
Dew Point 52 °F    
Average Humidity 56    
Maximum Humidity 100    
Minimum Humidity 34    
Precipitation  
Precipitation 0.00 in 0.07 in 1.55 in (1977)
Month to date precipitation 1.69  
Year to date precipitation 17.98  
Sea Level Pressure  
Sea Level Pressure 29.65 in    
Wind  
Wind Speed 11 mph (South)    
Max Wind Speed 18 mph    
Max Gust Speed 26 mph    
Visibility 10 miles    
Events      
T = Trace of Precipitation, MM = Missing Value Source: NWS Daily Summary

Daily Weather History Graph

Daily Weather History Graph

Search for Another Location

Airport:

Trip Planner

Search our weather history database for the weather conditions in past years. The results will help you decide how hot, cold, wet, or windy it might be!

Date:

Astronomy

Sep. 23, 2013 Rise Set
Actual Time 7:20 AM CDT 7:27 PM CDT
Civil Twilight 6:50 AM CDT 7:57 PM CDT
Nautical Twilight 6:15 AM CDT 8:32 PM CDT
Astronomical Twilight 5:39 AM CDT 9:08 PM CDT
Moon 9:44 PM CDT (9/23) 11:57 AM CDT (9/23)
Length of Visible Light 13h 06m
Length of Day
12h 06m
Waning Gibbous, 81% of the Moon is Illuminated
Sep 23
Waning Gibbous
Sep 26
Last Quarter
Oct 4
New
Oct 11
First Quarter
Oct 18
Full

Hourly Weather History & Observations

Time (CDT) Temp. Dew Point Humidity Pressure Visibility Wind Dir Wind Speed Gust Speed Precip Events Conditions
12:15 AM 66.2 °F 53.6 °F 64% 29.61 in 10.0 mi North - - N/A   Unknown
12:35 AM 66.2 °F 53.6 °F 64% 29.60 in 10.0 mi North - - N/A   Unknown
12:55 AM 66.2 °F 53.6 °F 64% 29.60 in 10.0 mi North - - N/A   Unknown
1:15 AM 66.2 °F 51.8 °F 60% 29.60 in 10.0 mi North - - N/A   Unknown
1:35 AM 66.2 °F 51.8 °F 60% 29.60 in 10.0 mi North - - N/A   Unknown
1:55 AM 66.2 °F 50.0 °F 56% 29.59 in 10.0 mi North - - N/A   Unknown
2:15 AM 66.2 °F 50.0 °F 56% 29.58 in 10.0 mi North - - N/A   Unknown
2:35 AM 66.2 °F 50.0 °F 56% 29.59 in 10.0 mi North - - N/A   Unknown
2:55 AM 66.2 °F 50.0 °F 56% 29.58 in 10.0 mi North - - N/A   Unknown
3:15 AM 66.2 °F 50.0 °F 56% 29.58 in 10.0 mi North - - N/A   Unknown
3:35 AM 66.2 °F 50.0 °F 56% 29.58 in 10.0 mi North - - N/A   Unknown
3:55 AM 66.2 °F 50.0 °F 56% 29.59 in 10.0 mi North - - N/A   Unknown
4:15 AM 66.2 °F 50.0 °F 56% 29.59 in 10.0 mi North - - N/A   Unknown
4:35 AM 66.2 °F 50.0 °F 56% 29.59 in 10.0 mi North - - N/A   Unknown
4:55 AM 66.2 °F 50.0 °F 56% 29.59 in 10.0 mi North - - N/A   Unknown
5:15 AM 66.2 °F 50.0 °F 56% 29.59 in 10.0 mi North - - N/A   Unknown
5:35 AM 64.4 °F 50.0 °F 59% 29.59 in 10.0 mi North - - N/A   Unknown
5:55 AM 64.4 °F 50.0 °F 59% 29.59 in 10.0 mi North - - N/A   Unknown
6:15 AM 64.4 °F 50.0 °F 59% 29.60 in 10.0 mi North - - N/A   Unknown
6:35 AM 64.4 °F 50.0 °F 59% 29.60 in 10.0 mi North - - N/A   Unknown
6:55 AM 64.4 °F 50.0 °F 59% 29.60 in 10.0 mi North - - N/A   Unknown
7:15 AM 62.6 °F 50.0 °F 63% 29.61 in 10.0 mi North - - N/A   Unknown
7:35 AM 62.6 °F 50.0 °F 63% 29.61 in 10.0 mi North - - N/A   Unknown
7:55 AM 62.6 °F 50.0 °F 63% 29.61 in 10.0 mi North - - N/A   Unknown
8:15 AM 64.4 °F 50.0 °F 59% 29.62 in 10.0 mi North - - N/A   Unknown
8:35 AM 64.4 °F 50.0 °F 59% 29.62 in 10.0 mi North - - N/A   Unknown
8:55 AM 64.4 °F 50.0 °F 59% 29.63 in 10.0 mi North - - N/A   Unknown
9:15 AM 66.2 °F 50.0 °F 56% 29.63 in 10.0 mi North - - N/A   Unknown
9:35 AM 66.2 °F 50.0 °F 56% 29.63 in 10.0 mi North - - N/A   Unknown
9:55 AM 66.2 °F 51.8 °F 60% 29.63 in 10.0 mi North - - N/A   Unknown
10:15 AM 68.0 °F 51.8 °F 56% 29.63 in 10.0 mi North - - N/A   Unknown
10:35 AM 68.0 °F 51.8 °F 56% 29.63 in 10.0 mi North - - N/A   Unknown
10:55 AM 68.0 °F 51.8 °F 56% 29.63 in 10.0 mi North - - N/A   Unknown
11:15 AM 73.4 °F 50.0 °F 44% 29.63 in 10.0 mi North - - N/A   Unknown
11:35 AM 73.4 °F 50.0 °F 44% 29.63 in 10.0 mi North - - N/A   Unknown
11:55 AM 73.4 °F 50.0 °F 44% 29.63 in 10.0 mi North - - N/A   Unknown
12:15 PM 75.2 °F 50.0 °F 41% 29.63 in 10.0 mi North - - N/A   Unknown
12:35 PM 75.2 °F 50.0 °F 41% 29.63 in 10.0 mi North - - N/A   Unknown
1:15 PM 77.0 °F 51.8 °F 41% 29.63 in 10.0 mi North - - N/A   Unknown
1:35 PM 77.0 °F 51.8 °F 41% 29.63 in 10.0 mi North - - N/A   Unknown
1:55 PM 77.0 °F 51.8 °F 41% 29.63 in 10.0 mi North - - N/A   Unknown
2:15 PM 78.8 °F 53.6 °F 42% 29.62 in 10.0 mi North - - N/A   Unknown
2:35 PM 80.6 °F 50.0 °F 34% 29.62 in 10.0 mi North - - N/A   Unknown
2:55 PM 80.6 °F 51.8 °F 37% 29.63 in 10.0 mi North - - N/A   Unknown
3:15 PM 80.6 °F 51.8 °F 37% 29.63 in 10.0 mi North - - N/A   Unknown
3:35 PM 80.6 °F 51.8 °F 37% 29.63 in 10.0 mi North - - N/A   Unknown
3:55 PM 78.8 °F 51.8 °F 39% 29.63 in 10.0 mi North - - N/A   Unknown
4:15 PM 80.6 °F 51.8 °F 37% 29.63 in 10.0 mi North - - N/A   Unknown
4:35 PM 80.6 °F 51.8 °F 37% 29.63 in 10.0 mi North - - N/A   Unknown
4:55 PM 78.8 °F 51.8 °F 39% 29.64 in 10.0 mi North - - N/A   Unknown
5:15 PM 77.0 °F 51.8 °F 41% 29.65 in 10.0 mi North - - N/A   Unknown
5:35 PM 78.8 °F 51.8 °F 39% 29.65 in 10.0 mi South 16.1 mph 23.0 mph N/A   Unknown
5:55 PM 78.8 °F 51.8 °F 39% 29.66 in 10.0 mi South 15.0 mph 26.5 mph N/A   Unknown
6:15 PM 77.0 °F 51.8 °F 41% 29.67 in 10.0 mi South 18.4 mph 26.5 mph N/A   Unknown
6:35 PM 73.4 °F 51.8 °F 47% 29.68 in 10.0 mi South 12.7 mph 21.9 mph N/A   Unknown
6:55 PM 71.6 °F 53.6 °F 53% 29.68 in 10.0 mi South 9.2 mph - N/A   Unknown
7:15 PM 68.0 °F 53.6 °F 60% 29.69 in 10.0 mi South 5.8 mph - N/A   Unknown
7:35 PM 66.2 °F 53.6 °F 64% 29.69 in 10.0 mi South 8.1 mph - N/A   Unknown
7:55 PM 66.2 °F 53.6 °F 64% 29.71 in 10.0 mi South 9.2 mph - N/A   Unknown
8:15 PM 66.2 °F 53.6 °F 64% 29.71 in 10.0 mi South 6.9 mph - N/A   Unknown
8:35 PM 62.6 °F 55.4 °F 77% 29.72 in 10.0 mi SSE 6.9 mph - N/A   Unknown
8:55 PM 64.4 °F 53.6 °F 68% 29.73 in 10.0 mi SSE 8.1 mph - N/A   Unknown
9:15 PM 64.4 °F 53.6 °F 68% 29.74 in 10.0 mi SSE 9.2 mph - N/A   Unknown
9:35 PM 66.2 °F 53.6 °F 64% 29.75 in 10.0 mi South 8.1 mph - N/A   Unknown
9:55 PM 66.2 °F 57.2 °F 73% 29.78 in 10.0 mi WNW 12.7 mph 20.7 mph N/A   Unknown
10:15 PM 64.4 °F 59.0 °F 83% 29.79 in 10.0 mi WNW 12.7 mph - N/A   Unknown
10:35 PM 64.4 °F 59.0 °F 83% 29.80 in 10.0 mi NNW 9.2 mph - N/A   Unknown
10:55 PM 62.6 °F 59.0 °F 88% 29.80 in 10.0 mi NNE 4.6 mph - N/A   Unknown
11:15 PM 62.6 °F 59.0 °F 88% 29.79 in 10.0 mi NNE 8.1 mph - N/A   Unknown
11:35 PM 60.8 °F 59.0 °F 94% 29.81 in 10.0 mi NW 5.8 mph - N/A   Unknown
11:55 PM 59.0 °F 59.0 °F 100% 29.82 in 10.0 mi WNW 4.6 mph - N/A   Unknown